This is the latest recevied weather packets stored in our database for station/object AE5HO. If no packets are shown the sender has not sent any weather packets the latest 10 day(s).
| Time | Temp. | Humidity | Pressure | Rain* | Wind** | Luminosity | Snow |
|---|---|---|---|---|---|---|---|
| 1788034063 | 37.78° C | 37% | 1015.8 hPa | 0 mm | - | 40 W/m² | - |
| 1788033762 | 38.33° C | 35% | 1016 hPa | 0 mm | - | 43 W/m² | - |
| 1788033457 | 38.33° C | 38% | 1015.9 hPa | 0 mm | - | 48 W/m² | - |
| 1788033152 | 37.78° C | 39% | 1016 hPa | 0 mm | - | 40 W/m² | - |
| 1788032853 | 37.78° C | 38% | 1016 hPa | 0 mm | - | 44 W/m² | - |
| 1788032552 | 37.78° C | 39% | 1016.3 hPa | 0 mm | - | 42 W/m² | - |
| 1788032248 | 37.78° C | 39% | 1016.4 hPa | 0 mm | - | 42 W/m² | - |
| 1788031944 | 37.22° C | 39% | 1016.3 hPa | 0 mm | - | 51 W/m² | - |
| 1788031645 | 37.78° C | 38% | 1016.5 hPa | 0 mm | - | 44 W/m² | - |
| 1788031339 | 37.78° C | 38% | 1016.5 hPa | 0 mm | - | 43 W/m² | - |
| 1788031038 | 37.22° C | 38% | 1016.7 hPa | 0 mm | - | 55 W/m² | - |
| 1788030733 | 37.22° C | 39% | 1016.7 hPa | 0 mm | - | 62 W/m² | - |
| 1788030432 | 37.78° C | 38% | 1016.9 hPa | 0 mm | - | 50 W/m² | - |
| 1788030128 | 37.22° C | 40% | 1017 hPa | 0 mm | - | 53 W/m² | - |
| 1788029827 | 37.22° C | 39% | 1016.7 hPa | 0 mm | - | 43 W/m² | - |
| 1788029523 | 37.22° C | 40% | 1016.9 hPa | 0 mm | - | 43 W/m² | - |
| 1788029222 | 36.67° C | 41% | 1017.3 hPa | 0 mm | - | 44 W/m² | - |
| 1788028917 | 36.67° C | 40% | 1016.9 hPa | 0 mm | - | 45 W/m² | - |
| 1788028616 | 37.22° C | 42% | 1017.1 hPa | 0 mm | - | 44 W/m² | - |
| 1788028311 | 37.22° C | 41% | 1017 hPa | 0 mm | - | 48 W/m² | - |
| 1788028007 | 36.67° C | 43% | 1017.2 hPa | 0 mm | - | 48 W/m² | - |
| 1788027702 | 36.67° C | 43% | 1017.3 hPa | 0 mm | - | 53 W/m² | - |
| 1788027401 | 36.11° C | 44% | 1017.3 hPa | 0 mm | - | 49 W/m² | - |
| 1788027097 | 35.56° C | 45% | 1017.6 hPa | 0 mm | - | 53 W/m² | - |
| 1788026797 | 36.11° C | 46% | 1017.5 hPa | 0 mm | - | 194 W/m² | - |
* Rain latest hour (hover to see other rain measurements)
** Current wind speed in m/s (hover to see current wind gust speed)